Flag for Germany Weather past 2 weeks in Bergisch Gladbach, North Rhine-Westphalia, Germany

Now
68 °F

Fog.


Feels Like: 68 °F
Forecast: 69 / 86 °F
Wind: 6 mph from Southeast

Location: Koeln / Bonn

Current Time: Aug 30, 2015 at 4:03:50 AM

Latest Report: Aug 30, 2015 at 3:20 AM


Visibility: N/A

Pressure: 30.07 "Hg

Humidity: 83%

Dew point: 63 °F

Location of Bergisch GladbachLocation

Historic Weather in Bergisch Gladbach — Graph

°F

Bergisch Gladbach temperature yesterday

Maximum temperature yesterday: 79 °F (at 3:50 PM)
Minimum temperature yesterday: 50 °F (at 5:50 AM)
Average temperature yesterday: 65 °F

Past Weeks' High & Low Weather Summary

 TemperatureHumidityPressure
High81 °F (Aug 26, 2:50 PM)94% (Aug 15, 10:50 PM)30.27 "Hg (Aug 15, 10:50 PM)
Low46 °F (Aug 19, 6:50 AM)26% (Aug 23, 3:20 PM)29.56 "Hg (Aug 24, 2:20 PM)
Average64 °F71%29.97 "Hg
* Reported Aug 15 2:20 AM — Aug 30 2:50 AM, Bergisch Gladbach, Weather by CustomWeather, © 2015

Note: Actual official high and low records may vary slightly from our data, if they occured in-between our weather recording intervals... More about our weather records

Advertising

Bergisch Gladbach weather history for previous 24 hours

 ConditionsComfort  
Time TempWeatherWind HumidityBarometerVisibility
2:50 AM
Sun, Aug 30
68 °FFog.6 mph83%30.07 "HgN/A
2:20 AM70 °FFog.5 mph83%30.07 "HgN/A
1:50 AM68 °FFog.6 mph88%30.07 "HgN/A
1:20 AM68 °FFog.6 mph88%30.09 "HgN/A
12:50 AM66 °FFog.6 mph88%30.09 "HgN/A
12:20 AM66 °FFog.2 mph94%30.09 "HgN/A
11:50 PM
Sat, Aug 29
68 °FFog.3 mph88%30.09 "HgN/A
11:20 PM68 °FFog.1 mph88%30.09 "HgN/A
10:50 PM68 °FFog.2 mph88%30.09 "HgN/A
10:20 PM68 °FFog.3 mph83%30.09 "HgN/A
9:50 PM72 °FFog.2 mph78%30.09 "HgN/A
9:20 PM72 °FSunny.2 mph78%30.09 "Hg10 mi
8:50 PM73 °FSunny.3 mph78%30.09 "Hg10 mi
8:20 PM77 °FSunny.3 mph69%30.09 "Hg10 mi
7:50 PM77 °FSunny.3 mph65%30.09 "Hg10 mi
7:20 PM79 °FScattered clouds.5 mph61%30.09 "HgN/A
6:50 PM79 °FPassing clouds.5 mph61%30.09 "HgN/A
6:20 PM79 °FPassing clouds.5 mph61%30.09 "HgN/A
5:50 PM79 °FScattered clouds.5 mph58%30.09 "HgN/A
5:20 PM79 °FScattered clouds.5 mph58%30.12 "HgN/A
4:50 PM79 °FScattered clouds.3 mph54%30.12 "HgN/A
4:20 PM79 °FScattered clouds.3 mph58%30.12 "HgN/A
3:50 PM79 °FPartly sunny.3 mph58%30.15 "HgN/A
3:20 PM77 °FBroken clouds.3 mph57%30.15 "HgN/A
2:50 PM77 °FBroken clouds.3 mph57%30.15 "HgN/A
2:20 PM75 °FBroken clouds.3 mph57%30.15 "HgN/A
1:50 PM75 °FBroken clouds.2 mph57%30.18 "HgN/A
1:20 PM73 °FPartly sunny.3 mph57%30.18 "HgN/A
12:50 PM73 °FScattered clouds.3 mph61%30.18 "HgN/A
11:50 AM72 °FPassing clouds.9 mph65%30.18 "HgN/A
11:20 AM70 °FPassing clouds.3 mph64%30.18 "HgN/A
10:50 AM68 °FScattered clouds.5 mph64%30.21 "HgN/A
9:20 AM61 °FPassing clouds.3 mph83%30.21 "HgN/A
8:50 AM59 °FPartly sunny.3 mph82%30.21 "HgN/A
7:50 AM52 °FSunny.5 mph94%30.21 "Hg10 mi
7:20 AM50 °FClear.3 mph94%30.21 "Hg10 mi
6:50 AM50 °FFog.1 mph94%30.21 "HgN/A
6:20 AM50 °FFog.5 mph94%30.21 "HgN/A
5:50 AM50 °FFog.3 mph94%30.21 "HgN/A
5:20 AM52 °FFog.3 mph94%30.18 "HgN/A
4:50 AM52 °FFog.6 mph88%30.18 "HgN/A
4:20 AM52 °FFog.5 mph94%30.18 "HgN/A
Weather by CustomWeather, © 2015

See weather overviewHow to use our weather pages